Regional Weather Roundup
Issued by NWS

Home | Current Version | Previous Version | Graphics & Text | Print | Product List | Glossary On
Versions: 1 2 3 4 5 6 7 8 9 10 11 12 13 14 15 16 17 18 19 20 21 22 23 24 25 26 27 28 29 30 31 32 33 34 35 36 37 38 39 40 41 42 43 44 45 46 47 48 49 50
000
ASUS44 KMEG 230700
RWRTN
TENNESSEE HOURLY STATE WEATHER ROUNDUP
NATIONAL WEATHER SERVICE MEMPHIS TN
200 AM CDT MON OCT 23 2017

TNZ002-004-019-021-049-052-054-088>092-230800-
WEST TENNESSEE

CITY           SKY/WX    TMP DP  RH WIND       PRES   REMARKS
MEMPHIS INTL   CLOUDY    56  54  93 NW12      29.96F
NWS MEMPHIS      N/A     55 N/A N/A MISG        N/A
JACKSON        CLOUDY    57  56  96 W10       29.93F
DYERSBURG      LGT RAIN  54  54 100 NW8       29.96S FOG
$$

TNZ008-025-027-028-033-062-065-066-230800-
NORTH MIDDLE TENNESSEE

CITY           SKY/WX    TMP DP  RH WIND       PRES   REMARKS
NASHVILLE      CLOUDY    71  63  75 S16       29.88F
CLARKSVILLE    RAIN      65  63  93 W8        29.88S FOG
SMYRNA         LGT RAIN  69  64  84 SE15      29.90F
CROSSVILLE     CLOUDY    65  58  78 VRB7G21   30.01F
$$

TNZ061-075-076-078-094-096-097-230800-
SOUTH MIDDLE TENNESSEE

CITY           SKY/WX    TMP DP  RH WIND       PRES   REMARKS
$$

TNZ017-018-042-046-047-230800-
NORTHEAST TENNESSEE

CITY           SKY/WX    TMP DP  RH WIND       PRES   REMARKS
TRI CITIES     CLOUDY    67  58  72 SE5       30.12F
$$

TNZ012-013-036-069-073-074-230800-
CENTRAL EAST TENNESSEE

CITY           SKY/WX    TMP DP  RH WIND       PRES   REMARKS
KNOXVILLE      CLOUDY    73  60  63 SE13G25   30.00F
OAK RIDGE      CLOUDY    62  60  93 CALM      30.03F
$$

TNZ083-085-099-230800-
SOUTHEAST TENNESSEE

CITY           SKY/WX    TMP DP  RH WIND       PRES   REMARKS
CHATTANOOGA    LGT RAIN  69  64  84 SE8       29.99F
$$

SKY/WX REPORTED AS FAIR MEANS FEW OR NO CLOUDS BELOW
12 THOUSAND FEET.





USA.gov is the U.S. government's official web portal to all federal, state and local government web resources and services.